Ankara, Turkey

10:09 PM +03 on April 27, 2017 (GMT +0300)
Esenboga

Weather History for LTAC - November, 2012

Change the Weather History Date:

Sunday, November 4, 2012

  Actual Average Record
Temperature  
Mean Temperature 53 °F -  
Max Temperature 69 °F 50 °F 73 °F (2003)
Min Temperature 37 °F 27 °F 22 °F (2016)
Degree Days  
Heating Degree Days 12    
Growing Degree Days 3 (Base 50)    
Moisture  
Dew Point 43 °F    
Average Humidity 74    
Maximum Humidity 100    
Minimum Humidity 33    
Precipitation  
Precipitation 0.00 in - - ()
Sea Level Pressure  
Sea Level Pressure 30.15 in    
Wind  
Wind Speed 3 mph ()    
Max Wind Speed 13 mph    
Max Gust Speed -    
Visibility 6.8 miles    
Events      
Averages and records for this station are not official NWS values.
T = Trace of Precipitation, MM = Missing Value Source: Averaged Metar Reports

Daily Weather History Graph

Daily Weather History Graph

Search for Another Location

Airport or City:

Trip Planner

Search our weather history database for the weather conditions in past years. The results will help you decide how hot, cold, wet, or windy it might be!

Date:

Astronomy

Nov. 04, 2012 Rise Set
Actual Time 6:20 AM EET 4:41 PM EET
Civil Twilight 5:52 AM EET 5:10 PM EET
Nautical Twilight 5:20 AM EET 5:42 PM EET
Astronomical Twilight 4:48 AM EET 6:13 PM EET
Moon 9:00 PM EET (11/4) 10:51 AM EET (11/4)
Length of Visible Light 11h 17m
Length of Day
10h 20m
Waning Gibbous, 74% of the Moon is Illuminated
Nov 4
Waning Gibbous
Nov 7
Last Quarter
Nov 14
New
Nov 20
First Quarter
Nov 28
Full

Hourly Weather History & Observations

Time (EET) Temp. Windchill Dew Point Humidity Pressure Visibility Wind Dir Wind Speed Gust Speed Precip Events Conditions
12:20 AM 42.8 °F - 41.0 °F 93% 30.18 in - Variable 2.3 mph - N/A   Clear
12:50 AM 44.6 °F - 42.8 °F 93% 30.18 in - Variable 2.3 mph - N/A   Clear
1:20 AM 42.8 °F - 41.0 °F 93% 30.18 in - Variable 1.2 mph - N/A   Clear
1:50 AM 42.8 °F - 41.0 °F 93% 30.18 in - Variable 2.3 mph - N/A   Clear
2:00 AM 42 °F - 40 °F 91% 30.14 in 6 mi NNE 2.3 mph - -  
2:20 AM 41.0 °F 39.0 °F 39.2 °F 93% 30.18 in - NE 3.5 mph - N/A   Clear
2:50 AM 39.2 °F 37.0 °F 37.4 °F 93% 30.18 in - Variable 3.5 mph - N/A   Clear
3:20 AM 39.2 °F - 39.2 °F 100% 30.18 in - Variable 2.3 mph - N/A   Clear
3:50 AM 41.0 °F - 39.2 °F 93% 30.18 in - Variable 1.2 mph - N/A   Clear
4:20 AM 39.2 °F - 37.4 °F 93% 30.18 in - West 1.2 mph - N/A   Clear
4:50 AM 41.0 °F - 39.2 °F 93% 30.18 in - ENE 2.3 mph - N/A   Clear
5:20 AM 41.0 °F - 41.0 °F 100% 30.18 in 6.2 mi East 2.3 mph - N/A   Partly Cloudy
5:50 AM 41.0 °F 39.0 °F 39.2 °F 93% 30.18 in 6.2 mi NE 3.5 mph - N/A   Partly Cloudy
6:20 AM 39.2 °F - 37.4 °F 93% 30.18 in - Variable 2.3 mph - N/A   Clear
6:50 AM 37.4 °F - 37.4 °F 100% 30.18 in - Variable 2.3 mph - N/A   Clear
7:20 AM 41.0 °F - 39.2 °F 93% 30.18 in - Variable 2.3 mph - N/A   Clear
7:50 AM 42.8 °F 40.1 °F 41.0 °F 93% 30.21 in - SE 4.6 mph - N/A   Clear
8:00 AM 43 °F - 40 °F 84% 30.21 in 12 mi SE 4.6 mph - -   Scattered Clouds
8:20 AM 46.4 °F - 42.8 °F 87% 30.21 in - Variable 2.3 mph - N/A   Clear
8:50 AM 48.2 °F - 42.8 °F 82% 30.21 in 6.2 mi Variable 2.3 mph - N/A   Partly Cloudy
9:20 AM 51.8 °F - 44.6 °F 76% 30.21 in 6.2 mi Variable 2.3 mph - N/A   Scattered Clouds
9:50 AM 53.6 °F - 44.6 °F 72% 30.18 in 6.2 mi Variable 2.3 mph - N/A   Scattered Clouds
10:20 AM 57.2 °F - 44.6 °F 63% 30.18 in 6.2 mi Variable 2.3 mph - N/A   Scattered Clouds
10:50 AM 59.0 °F - 46.4 °F 63% 30.18 in 6.2 mi Variable 2.3 mph - N/A   Scattered Clouds
11:20 AM 60.8 °F - 44.6 °F 55% 30.18 in 6.2 mi Variable 2.3 mph - N/A   Scattered Clouds
11:50 AM 64.4 °F - 46.4 °F 52% 30.15 in 6.2 mi Variable 1.2 mph - N/A   Scattered Clouds
12:20 PM 66.2 °F - 44.6 °F 46% 30.15 in 6.2 mi Variable 2.3 mph - N/A   Scattered Clouds
12:50 PM 66.2 °F - 44.6 °F 46% 30.12 in 6.2 mi South 5.8 mph - N/A   Scattered Clouds
1:20 PM 68.0 °F - 44.6 °F 43% 30.12 in 6.2 mi SSW 9.2 mph - N/A   Scattered Clouds
1:50 PM 66.2 °F - 44.6 °F 46% 30.12 in 6.2 mi SSW 12.7 mph - N/A   Scattered Clouds
2:00 PM 67 °F - 44 °F 33% 30.09 in 12 mi SSW 12.7 mph - -   Partly Cloudy
2:20 PM 68.0 °F - 44.6 °F 43% 30.12 in 6.2 mi WSW 11.5 mph - N/A   Scattered Clouds
2:50 PM 68.0 °F - 46.4 °F 46% 30.09 in 6.2 mi SW 6.9 mph - N/A   Scattered Clouds
3:20 PM 68.0 °F - 44.6 °F 43% 30.09 in 6.2 mi SSW 6.9 mph - N/A   Scattered Clouds
3:50 PM 68.0 °F - 44.6 °F 43% 30.09 in 6.2 mi SW 6.9 mph - N/A   Scattered Clouds
4:20 PM 64.4 °F - 44.6 °F 49% 30.09 in 6.2 mi WSW 5.8 mph - N/A   Scattered Clouds
4:50 PM 62.6 °F - 44.6 °F 52% 30.09 in 6.2 mi West 3.5 mph - N/A   Scattered Clouds
5:20 PM 60.8 °F - 44.6 °F 55% 30.12 in 6.2 mi WNW 4.6 mph - N/A   Scattered Clouds
5:50 PM 59.0 °F - 44.6 °F 59% 30.12 in 6.2 mi Variable 2.3 mph - N/A   Scattered Clouds
6:20 PM 59.0 °F - 44.6 °F 59% 30.12 in 6.2 mi Variable 1.2 mph - N/A   Scattered Clouds
6:50 PM 57.2 °F - 44.6 °F 63% 30.12 in 6.2 mi Variable 2.3 mph - N/A   Scattered Clouds
7:20 PM 53.6 °F - 44.6 °F 72% 30.12 in 6.2 mi Variable 2.3 mph - N/A   Partly Cloudy
7:50 PM 53.6 °F - 44.6 °F 72% 30.12 in - ENE 3.5 mph - N/A   Clear
8:00 PM 53 °F - 44 °F 63% 30.14 in 12 mi ENE 3.5 mph - -  
8:20 PM 51.8 °F - 42.8 °F 71% 30.12 in - NNE 4.6 mph - N/A   Clear
8:50 PM 50.0 °F - 42.8 °F 76% 30.12 in - Variable 2.3 mph - N/A   Clear
9:20 PM 48.2 °F - 42.8 °F 82% 30.12 in - Variable 1.2 mph - N/A   Clear
9:50 PM 48.2 °F - 42.8 °F 82% 30.12 in - Variable 2.3 mph - N/A   Clear
10:20 PM 46.4 °F - 42.8 °F 87% 30.12 in - Variable 1.2 mph - N/A   Clear
10:50 PM 46.4 °F - 42.8 °F 87% 30.12 in - Calm Calm - N/A   Clear
11:20 PM 46.4 °F - 42.8 °F 87% 30.12 in - Variable 2.3 mph - N/A   Clear
11:50 PM 44.6 °F - 41.0 °F 87% 30.12 in - Calm Calm - N/A   Clear